This is the latest recevied weather packets stored in our database for station/object AI9F. If no packets are shown the sender has not sent any weather packets the latest 10 day(s).
| Time | Temp. | Humidity | Pressure | Rain* | Wind** | Luminosity | Snow |
|---|---|---|---|---|---|---|---|
| 1777853941 | 18.33° C | 45% | 1011.2 hPa | 0 mm | - | 24 W/m² | - |
| 1777853638 | 18.89° C | 44% | 1011.3 hPa | 0 mm | - | 29 W/m² | - |
| 1777853335 | 18.89° C | 43% | 1011.6 hPa | 0 mm | - | 33 W/m² | - |
| 1777853032 | 19.44° C | 41% | 1011.5 hPa | 0 mm | - | 36 W/m² | - |
| 1777852729 | 19.44° C | 39% | 1011.6 hPa | 0 mm | - | 43 W/m² | - |
| 1777852427 | 20° C | 38% | 1011.8 hPa | 0 mm | - | 49 W/m² | - |
| 1777852124 | 20° C | 37% | 1011.7 hPa | 0 mm | - | 54 W/m² | - |
| 1777851822 | 20° C | 39% | 1011.4 hPa | 0 mm | - | 61 W/m² | - |
| 1777851519 | 20.56° C | 37% | 1011.6 hPa | 0 mm | - | 73 W/m² | - |
| 1777851215 | 20.56° C | 36% | 1011.5 hPa | 0 mm | - | 77 W/m² | - |
| 1777850912 | 21.11° C | 37% | 1011.7 hPa | 0 mm | - | 87 W/m² | - |
| 1777850609 | 20.56° C | 38% | 1011.4 hPa | 0 mm | - | 105 W/m² | - |
| 1777850307 | 20.56° C | 38% | 1011.5 hPa | 0 mm | - | 104 W/m² | - |
| 1777850004 | 20.56° C | 36% | 1011.7 hPa | 0 mm | - | 118 W/m² | - |
| 1777849700 | 20.56° C | 35% | 1011.6 hPa | 0 mm | - | 132 W/m² | - |
| 1777849397 | 20.56° C | 37% | 1011.5 hPa | 0 mm | - | 142 W/m² | - |
| 1777849095 | 20.56° C | 35% | 1011.6 hPa | 0 mm | - | 157 W/m² | - |
| 1777848790 | 20.56° C | 35% | 1011.6 hPa | 0 mm | - | 172 W/m² | - |
| 1777848487 | 20.56° C | 35% | 1011.3 hPa | 0 mm | - | 179 W/m² | - |
| 1777848184 | 20.56° C | 37% | 1011.1 hPa | 0 mm | - | 214 W/m² | - |
| 1777847882 | 20.56° C | 36% | 1011.1 hPa | 0 mm | - | 214 W/m² | - |
| 1777847579 | 20.56° C | 36% | 1011.3 hPa | 0 mm | - | 245 W/m² | - |
| 1777847275 | 20.56° C | 36% | 1011.3 hPa | 0 mm | - | 178 W/m² | - |
| 1777846974 | 21.11° C | 38% | 1011.1 hPa | 0 mm | - | 276 W/m² | - |
| 1777846671 | 21.11° C | 37% | 1011.4 hPa | 0 mm | - | 298 W/m² | - |
* Rain latest hour (hover to see other rain measurements)
** Current wind speed in m/s (hover to see current wind gust speed)